STARLINK-38246, 100247

Orbit data source: Space-Track

STARLINK-38246, 100247 is a payload satellite owned by SpaceX/Seattle (US) in SSO that was launched on Sat, 08 Aug 2026 UTC launched from the Air Force Western Test Range (AFWTR). Payload-class satellites include a variety of spacecraft equipped with specific instruments for various scientific and technological missions. These include communications satellites like Starlink; space stations such as the ISS; scientific satellites like the Hubble; Earth observation satellites from companies like Planet Labs, Umbra, and HawkEye 360; GPS; miniature CubeSats for education and research; and military/defense satellites.

Loading next visibility...
Identifier
100247, 2026-181B
Orbit
SSO
Country
Flag of USUS
Related business
Manufacturer
SpaceX/Seattle
Mission
Operational spacecraft
Bus & Motor
STARLINK V2MO, Unknown motor
Mass
575 kg wet, ~530 kg dry
Launch date (UTC)
2026-08-08 (1 month ago)
Launch vehicle
Unknown
Launch site
Air Force Western Test Range (AFWTR)
Object type
Payload
Rocket body
Debris
Shape & HBR
BOX + PAN, 17.7 m
Radar Cross Section
Large (>1 m²)

Expand to show TLE details & history
Last TLE update: 7 hours ago

TLE from 7 hours ago
0 STARLINK-38246
1 A0247U 26181B   26249.61931709  .00206168  00000-0  13402-2 0  9995
2 A0247  97.2851 292.5056 0000744 187.9704 172.1549 15.75359254  5726
Epoch: 2026-09-06T14:51Z
TLE epoch observation values (Epoch: 2026-09-06T14:51:48.996Z)
Latitude
-0.00009°
Longitude
83.83963°
Altitude
347.273 km
Speed
7.7 km/s
True Right ascension
19h 30m 01s
True Declination
0° 00' 00"
Sunlit
Object was in full shadow at epoch
Visualization orbit readout
Latitude
Unknown
Longitude
Unknown
Altitude
Unknown
Speed
Unknown
Apparent Right ascension
Unknown
Apparent Declination
Unknown
Sunlit
N/A
Visualization observer readout
Local Sidereal Time
13:31:49
Azimuth
Unknown
Elevation
Unknown
Doppler factor
Unknown
Orbital elements
Apogee altitude
340.996 km
Perigee altitude
339.996 km
Semi-major axis
6,718.633 km
Eccentricity
0.00007
Inclination
97.2851°
RAAN
292.5056°
Arg. of periapsis
187.9704°
True anomaly
172.15606°
Mean anomaly
172.1549°
Eccentric anomaly
172.15548°
Mean motion
3.94114 °/min
Orbital period
91.34 mins
BSTAR
0.0013402
Loading maneuver chart data...
Computing Atmospheric mass density...
Loading historical data...
Loading historical data...
Loading historical data...
Loading historical data...
Loading historical data...
Loading historical data...
Loading historical data...

Documentation

Showing up to 5 results
|